Darwin, CA

2:24 AM PST on February 10, 2016 (GMT -0800)
China Lake NAWS

Weather History for KNID - January, 2013

Change the Weather History Date:

Saturday, January 19, 2013

  Actual Average Record
Temperature  
Mean Temperature 41 °F -  
Max Temperature 63 °F 58 °F 70 °F (1999)
Min Temperature 19 °F 35 °F 19 °F (2012)
Degree Days  
Heating Degree Days 24    
Moisture  
Dew Point 0 °F    
Average Humidity 22    
Maximum Humidity 36    
Minimum Humidity 9    
Precipitation  
Precipitation 0.00 in - - ()
Sea Level Pressure  
Sea Level Pressure 30.32 in    
Wind  
Wind Speed 3 mph (SSW)    
Max Wind Speed 12 mph    
Max Gust Speed -    
Visibility 10 miles    
Events      
Averages and records for this station are not official NWS values.
T = Trace of Precipitation, MM = Missing Value Source: NWS Daily Summary

Daily Weather History Graph

Daily Weather History Graph

Search for Another Location

Airport or City:

Trip Planner

Search our weather history database for the weather conditions in past years. The results will help you decide how hot, cold, wet, or windy it might be!

Date:

Astronomy

Jan. 19, 2013 Rise Set
Actual Time 6:58 AM PST 5:05 PM PST
Civil Twilight 6:30 AM PST 5:32 PM PST
Nautical Twilight 5:59 AM PST 6:03 PM PST
Astronomical Twilight 5:29 AM PST 6:34 PM PST
Moon 11:31 AM PST (1/19) 12:40 AM PST (1/19)
Length of Visible Light 11h 01m
Length of Day
10h 06m
First Quarter, 58% of the Moon is Illuminated
Jan 19
First Quarter
Jan 26
Full
Feb 3
Last Quarter
Feb 9
New
Feb 17
First Quarter

Hourly Weather History & Observations

Time (PST) Temp. Windchill Dew Point Humidity Pressure Visibility Wind Dir Wind Speed Gust Speed Precip Events Conditions
12:56 AM 28.0 °F 21.7 °F -2.0 °F 27% 30.30 in 10.0 mi SSW 5.8 mph - N/A   Clear
1:56 AM 25.0 °F 20.7 °F -2.0 °F 31% 30.31 in 10.0 mi South 3.5 mph - N/A   Clear
2:56 AM 23.0 °F - -2.9 °F 32% 30.31 in 10.0 mi Calm Calm - N/A   Clear
3:56 AM 21.9 °F - -2.9 °F 34% 30.31 in 10.0 mi Calm Calm - N/A   Clear
4:56 AM 21.0 °F - -2.9 °F 35% 30.32 in 10.0 mi Calm Calm - N/A   Clear
5:56 AM 19.0 °F 10.0 °F -4.0 °F 36% 30.33 in 10.0 mi SSW 6.9 mph - N/A   Clear
6:56 AM 28.0 °F - -0.0 °F 30% 30.35 in 10.0 mi Calm Calm - N/A   Clear
7:56 AM 19.9 °F - -6.0 °F 32% 30.40 in 10.0 mi Calm Calm - N/A   Clear
8:56 AM 32.0 °F - -0.0 °F 26% 30.41 in 10.0 mi Calm Calm - N/A   Clear
9:56 AM 42.1 °F - 1.9 °F 19% 30.40 in 10.0 mi Calm Calm - N/A   Clear
10:56 AM 48.9 °F - 3.0 °F 15% 30.37 in 10.0 mi Calm Calm - N/A   Clear
11:56 AM 55.0 °F - 3.0 °F 12% 30.33 in 10.0 mi Calm Calm - N/A   Clear
12:56 PM 59.0 °F - 5.0 °F 12% 30.29 in 10.0 mi Variable 3.5 mph - N/A   Clear
1:56 PM 62.1 °F - 3.0 °F 9% 30.27 in 10.0 mi ESE 4.6 mph - N/A   Clear
2:56 PM 62.1 °F - 3.0 °F 9% 30.25 in 10.0 mi Calm Calm - N/A   Clear
3:56 PM 63.0 °F - 3.9 °F 10% 30.25 in 10.0 mi NE 3.5 mph - N/A   Clear
4:56 PM 57.9 °F - 3.0 °F 11% 30.26 in 10.0 mi Calm Calm - N/A   Clear
5:56 PM 46.0 °F 41.9 °F -0.0 °F 15% 30.29 in 10.0 mi West 8.1 mph - N/A   Clear
6:56 PM 39.9 °F 33.9 °F -2.0 °F 17% 30.30 in 10.0 mi SW 9.2 mph - N/A   Clear
7:56 PM 39.0 °F 33.4 °F -0.0 °F 19% 30.32 in 10.0 mi SSW 8.1 mph - N/A   Clear
8:56 PM 39.0 °F 32.8 °F -0.0 °F 19% 30.31 in 10.0 mi SSW 9.2 mph - N/A   Clear
9:56 PM 37.9 °F 31.5 °F -0.0 °F 20% 30.31 in 10.0 mi SW 9.2 mph - N/A   Clear
10:56 PM 33.1 °F 27.7 °F -0.9 °F 23% 30.31 in 10.0 mi SSW 5.8 mph - N/A   Clear
11:56 PM 32.0 °F 23.0 °F -0.9 °F 24% 30.30 in 10.0 mi SSW 11.5 mph - N/A   Clear